Погода в Юньлоне

Китай     22°26′36″N   114°01′20″E
темп.,
°C
ветер,
м/с
пор.,
м/с
влажн.,
%
обл.,
%
осадки,
мм/ч
давл.,
гПа
погр.,
м
21 мая, сб
сб2123:00+25ю348366 0.0 1009201
02:00+25ю348581 0.0 1008234
05:00+24ю1286100 0.0 1007112
08:00+26ююв117796 0.0 1009262
11:00+28ююз3367100 0.0 1008754
14:00+27ю4470100 0.8 1007691
17:00+27ююв4474100 0.6 1006600
20:00+25вюв3483100 0.7 1007259
22 мая, вс
вс2223:00+24вюв3386100 0.1 1008219
02:00+24вюв3588100 0.2 1007315
05:00+24вюв3787100 0.1 1006551
08:00+24вюв4884100 0.1 1007654
11:00+24вюв4883100 0.1 1008619
14:00+24в5884100 0.3 1006605
17:00+23в4888100 0.7 1005543
20:00+23в4890100 1.4 1007586
23 мая, пн
пн2323:00+23в498994 0.1 1008703
02:00+23в41090100 0.6 1006649
05:00+22в41090100 0.3 1006620
08:00+23всв4990100 0.5 1007545
11:00+23в4988100 0.3 1008589
14:00+23всв4887100 0.4 1007579
17:00+23всв3694100 3.8 1007368
20:00+23всв3694100 7.3 1008386
24 мая, вт
вт2423:00+23всв3693100 1.5 1010523
02:00+23всв2592100 1.6 1008454
05:00+23всв3592100 0.0 1008424
08:00+23всв3687100 0.0 1010545
11:00+25всв4678100 0.0 1010681
14:00+27в3474100 0.0 1008553
17:00+26в4576100 0.0 1007634
20:00+24в4983100 0.1 1009566
25 мая, ср
ср2523:00+24в4984100 0.0 1009564
02:00+24всв3587100 0.0 1008323
05:00+24всв2486100 0.0 1007307
08:00+24всв3584100 0.0 1008327
11:00+27всв3576100 0.0 1007538
14:00+26в4580100 0.2 1005547
17:00+26в4780100 0.0 1003561
20:00+25в4886100 0.0 1004513